Weather History for Rickenbacker, OH

Change the Weather History Date:

Friday, January 4, 2013

  Actual Average Record
Temperature  
Mean Temperature 28 °F -  
Max Temperature 33 °F 38 °F 69 °F (1997)
Min Temperature 23 °F 25 °F 3 °F (1999)
Degree Days  
Heating Degree Days 37    
Moisture  
Dew Point 20 °F    
Average Humidity 68    
Maximum Humidity 74    
Minimum Humidity 61    
Precipitation  
Precipitation 0.00 in - - ()
Sea Level Pressure  
Sea Level Pressure 30.28 in    
Wind  
Wind Speed 10 mph (SW)    
Max Wind Speed 18 mph    
Max Gust Speed 29 mph    
Visibility 10 miles    
Events      
Averages and records for this station are not official NWS values.
T = Trace of Precipitation, MM = Missing Value Source: NWS Daily Summary

Daily Weather History Graph

Daily Weather History Graph

Search for Another Location

Airport:

Trip Planner

Search our weather history database for the weather conditions in past years. The results will help you decide how hot, cold, wet, or windy it might be!

Date:

Astronomy

Jan. 04, 2013 Rise Set
Actual Time 7:53 AM EST 5:20 PM EST
Civil Twilight 7:23 AM EST 5:50 PM EST
Nautical Twilight 6:49 AM EST 6:24 PM EST
Astronomical Twilight 6:16 AM EST 6:57 PM EST
Moon No Moon Rise 11:36 AM EST (1/4)
Length of Visible Light 10h 27m
Length of Day
9h 27m
Waning Gibbous, 55% of the Moon is Illuminated
Jan 4
Waning Gibbous
Jan 4
Last Quarter
Jan 11
New
Jan 18
First Quarter
Jan 26
Full

Hourly Weather History & Observations

Time (EST) Temp. Windchill Dew Point Humidity Pressure Visibility Wind Dir Wind Speed Gust Speed Precip Events Conditions
12:15 AM 31.1 °F 23.1 °F 22.3 °F 70% 30.27 in 10.0 mi WSW 9.2 mph - N/A   Overcast
12:35 AM 31.1 °F 23.1 °F 22.5 °F 70% 30.26 in 10.0 mi WSW 9.2 mph - N/A   Overcast
12:55 AM 31.1 °F 21.9 °F 22.5 °F 70% 30.26 in 10.0 mi WSW 11.5 mph - N/A   Overcast
1:15 AM 31.5 °F 24.2 °F 22.1 °F 68% 30.26 in 10.0 mi WSW 8.1 mph - N/A   Overcast
1:35 AM 31.1 °F 23.1 °F 22.6 °F 71% 30.26 in 10.0 mi WSW 9.2 mph - N/A   Overcast
1:55 AM 31.3 °F 23.3 °F 22.5 °F 70% 30.26 in 10.0 mi WSW 9.2 mph - N/A   Overcast
2:35 AM 31.1 °F 23.1 °F 22.3 °F 70% 30.26 in 10.0 mi SW 9.2 mph - N/A   Overcast
2:55 AM 31.1 °F 22.4 °F 22.5 °F 70% 30.26 in 10.0 mi SW 10.4 mph - N/A   Overcast
3:15 AM 31.1 °F 23.7 °F 22.6 °F 71% 30.26 in 10.0 mi SW 8.1 mph - N/A   Overcast
3:35 AM 31.3 °F 22.7 °F 22.6 °F 70% 30.26 in 10.0 mi WSW 10.4 mph - N/A   Overcast
3:55 AM 31.3 °F 23.9 °F 23.0 °F 71% 30.26 in 10.0 mi SW 8.1 mph - N/A   Overcast
4:15 AM 31.1 °F 24.5 °F 23.0 °F 72% 30.26 in 10.0 mi SW 6.9 mph - N/A   Overcast
5:55 AM 32.0 °F 20.8 °F 21.2 °F 64% 30.25 in 10.0 mi WSW 17.3 mph 28.8 mph N/A   Overcast
6:55 AM 29.5 °F 18.0 °F 19.2 °F 66% 30.26 in 10.0 mi WSW 16.1 mph 21.9 mph N/A   Scattered Clouds
7:15 AM 28.0 °F 18.1 °F 18.5 °F 67% 30.27 in 10.0 mi WSW 11.5 mph - N/A   Clear
7:35 AM 27.0 °F 16.7 °F 18.3 °F 70% 30.27 in 10.0 mi WSW 11.5 mph - N/A   Clear
8:15 AM 25.3 °F 16.0 °F 17.1 °F 71% 30.28 in 10.0 mi WSW 9.2 mph - N/A   Clear
8:35 AM 25.3 °F 14.7 °F 17.1 °F 71% 30.29 in 10.0 mi WSW 11.5 mph - N/A   Clear
8:50 AM 24.8 °F 16.1 °F 17.6 °F 74% 30.29 in 10.0 mi WSW 8.1 mph - N/A   Clear
8:55 AM 25.5 °F 17.8 °F 16.9 °F 70% 30.29 in 10.0 mi WSW 6.9 mph - N/A   Clear
9:15 AM 25.5 °F 18.7 °F 16.7 °F 69% 30.30 in 10.0 mi WSW 5.8 mph - N/A   Clear
9:35 AM 26.1 °F 17.6 °F 17.1 °F 69% 30.31 in 10.0 mi WSW 8.1 mph - N/A   Clear
9:55 AM 27.5 °F 18.6 °F 18.1 °F 68% 30.31 in 10.0 mi WSW 9.2 mph 16.1 mph N/A   Scattered Clouds
10:15 AM 28.2 °F 19.5 °F 18.7 °F 67% 30.31 in 10.0 mi WSW 9.2 mph - N/A   Mostly Cloudy
10:35 AM 28.6 °F 19.3 °F 19.2 °F 68% 30.31 in 10.0 mi WSW 10.4 mph - N/A   Mostly Cloudy
10:55 AM 30.0 °F 20.0 °F 19.9 °F 66% 30.32 in 10.0 mi WSW 12.7 mph - N/A   Mostly Cloudy
11:15 AM 30.2 °F 19.8 °F 20.3 °F 67% 30.31 in 10.0 mi WSW 13.8 mph - N/A   Scattered Clouds
11:35 AM 31.1 °F 20.1 °F 20.8 °F 66% 30.31 in 10.0 mi WSW 16.1 mph - N/A   Clear
11:55 AM 31.6 °F 21.2 °F 21.0 °F 65% 30.30 in 10.0 mi WSW 15.0 mph 19.6 mph N/A   Clear
12:15 PM 32.0 °F 21.6 °F 21.4 °F 65% 30.28 in 10.0 mi WSW 15.0 mph 20.7 mph N/A   Clear
12:35 PM 32.0 °F 21.6 °F 21.7 °F 66% 30.28 in 10.0 mi WSW 15.0 mph 20.7 mph N/A   Clear
12:55 PM 32.5 °F 22.3 °F 21.9 °F 65% 30.27 in 10.0 mi WSW 15.0 mph - N/A   Clear
1:15 PM 32.9 °F 21.6 °F 21.7 °F 64% 30.26 in 10.0 mi WSW 18.4 mph - N/A   Clear
1:35 PM 33.1 °F 23.0 °F 21.9 °F 64% 30.26 in 10.0 mi WSW 15.0 mph 21.9 mph N/A   Clear
1:55 PM 33.3 °F 22.5 °F 21.6 °F 62% 30.25 in 10.0 mi WSW 17.3 mph 25.3 mph N/A   Clear
2:15 PM 33.4 °F 22.7 °F 21.7 °F 62% 30.25 in 10.0 mi West 17.3 mph 21.9 mph N/A   Clear
2:35 PM 33.8 °F 23.9 °F 21.6 °F 61% 30.25 in 10.0 mi WSW 15.0 mph - N/A   Clear
2:55 PM 33.6 °F 24.1 °F 21.9 °F 62% 30.25 in 10.0 mi WSW 13.8 mph - N/A   Clear
3:15 PM 33.4 °F 24.8 °F 22.3 °F 64% 30.26 in 10.0 mi West 11.5 mph - N/A   Clear
3:35 PM 33.4 °F 23.9 °F 21.9 °F 63% 30.26 in 10.0 mi WSW 13.8 mph - N/A   Clear
3:55 PM 33.1 °F 23.9 °F 22.1 °F 64% 30.25 in 10.0 mi SW 12.7 mph 18.4 mph N/A   Clear
4:15 PM 33.1 °F 23.4 °F 22.1 °F 64% 30.26 in 10.0 mi WSW 13.8 mph - N/A   Clear
4:35 PM 32.7 °F 23.0 °F 21.0 °F 62% 30.27 in 10.0 mi WSW 13.8 mph - N/A   Clear
4:55 PM 32.0 °F 23.0 °F 19.9 °F 61% 30.27 in 10.0 mi WSW 11.5 mph - N/A   Clear
5:15 PM 31.3 °F 21.1 °F 19.2 °F 61% 30.28 in 10.0 mi WSW 13.8 mph 18.4 mph N/A   Clear
5:35 PM 30.6 °F 21.2 °F 18.9 °F 62% 30.28 in 10.0 mi WSW 11.5 mph - N/A   Clear
5:55 PM 29.3 °F 21.5 °F 18.5 °F 64% 30.28 in 10.0 mi WSW 8.1 mph - N/A   Clear
6:15 PM 27.5 °F 20.2 °F 17.6 °F 66% 30.28 in 10.0 mi WSW 6.9 mph - N/A   Clear
6:35 PM 25.9 °F 17.4 °F 16.7 °F 68% 30.28 in 10.0 mi SW 8.1 mph - N/A   Clear
6:55 PM 26.1 °F 16.8 °F 17.2 °F 69% 30.28 in 10.0 mi SW 9.2 mph - N/A   Clear
7:15 PM 26.4 °F 18.0 °F 17.4 °F 69% 30.28 in 10.0 mi SW 8.1 mph - N/A   Clear
7:35 PM 26.4 °F 18.9 °F 17.2 °F 68% 30.28 in 10.0 mi SW 6.9 mph - N/A   Clear
7:55 PM 25.5 °F 16.2 °F 16.9 °F 70% 30.28 in 10.0 mi SSW 9.2 mph - N/A   Clear
8:15 PM 25.2 °F 19.5 °F 16.9 °F 71% 30.29 in 10.0 mi SW 4.6 mph - N/A   Clear
8:35 PM 24.3 °F 15.4 °F 16.2 °F 71% 30.29 in 10.0 mi SW 8.1 mph - N/A   Clear
8:55 PM 23.9 °F 16.8 °F 16.2 °F 72% 30.29 in 10.0 mi SSW 5.8 mph - N/A   Clear
9:15 PM 24.6 °F 15.1 °F 16.3 °F 71% 30.29 in 10.0 mi SSW 9.2 mph - N/A   Clear
9:35 PM 25.7 °F 15.1 °F 16.9 °F 69% 30.29 in 10.0 mi SSW 11.5 mph - N/A   Clear
9:55 PM 27.0 °F 19.5 °F 17.4 °F 67% 30.29 in 10.0 mi SSW 6.9 mph - N/A   Clear
10:15 PM 25.2 °F 16.5 °F 16.7 °F 70% 30.29 in 10.0 mi SSW 8.1 mph - N/A   Clear
10:35 PM 24.8 °F 16.1 °F 16.5 °F 71% 30.30 in 10.0 mi SSW 8.1 mph - N/A   Clear
10:55 PM 24.3 °F 16.3 °F 16.5 °F 72% 30.30 in 10.0 mi SSW 6.9 mph - N/A   Clear
11:15 PM 24.3 °F 17.3 °F 16.7 °F 73% 30.30 in 10.0 mi SSW 5.8 mph - N/A   Clear
11:35 PM 24.3 °F 15.4 °F 16.7 °F 73% 30.31 in 10.0 mi SSW 8.1 mph - N/A   Clear
11:55 PM 23.7 °F 14.7 °F 16.3 °F 73% 30.31 in 10.0 mi SSW 8.1 mph - N/A   Clear